Weather observations for the past three days for
Hazleton Municipal Airport
Imperial (Metric)
Date Time (edt) Wind (mph) Vis. (mi.) Weather Sky Cond. Temperature (ºF) Relative Humidity Wind Chill (°F) Heat Index (°F) Pressure Precipitation (in)
Air Dwpt 6 hour altimeter (in) sea level (mb) 1 hr 3 hr 6 hr
Max. Min.
22 07:55 Calm 0.00 Fair CLR 69.8 64.4 83% 30.14 0.0
22 07:35 Calm 0.00 Fair CLR 68 62.6 83% 30.13 0.0
22 07:15 Calm 0.00 NULL NULL 66.2 62.6 88% 30.13 0.0
22 06:55 Calm 0.00 NULL NULL 64.4 60.8 88% 30.14 0.0
22 06:35 Calm 0.00 NULL NULL 64.4 60.8 88% 30.14 0.0
22 06:15 Calm 0.00 NULL NULL 62.6 60.8 94% 30.13 0.0
22 05:55 Calm 0.00 NULL NULL 62.6 59 88% 30.13 0.0
22 05:35 Calm 0.00 NULL NULL 62.6 59 88% 30.13 0.0
22 05:15 Calm 0.00 NULL NULL 62.6 59 88% 30.14 0.0
22 04:55 Calm 0.00 NULL NULL 60.8 59 94% 30.13 0.0
22 04:35 Calm 0.00 NULL NULL 60.8 59 94% 30.14 0.0
22 04:15 Calm 0.00 NULL NULL 60.8 59 94% 30.14 0.0
22 03:55 Calm 0.00 NULL NULL 60.8 59 94% 30.14 0.0
22 03:35 Calm 0.00 NULL NULL 60.8 59 94% 30.14 0.0
22 03:15 Calm 0.00 NULL NULL 60.8 59 94% 30.14 0.0
22 02:55 Calm 0.00 NULL NULL 60.8 59 94% 30.14 0.0
22 02:35 Calm 0.00 NULL NULL 60.8 59 94% 30.15 0.0
22 02:15 Calm 0.00 NULL NULL 60.8 59 94% 30.16 0.0
22 01:55 Calm 0.00 NULL NULL 60.8 59 94% 30.16 0.0
22 01:35 Calm 0.00 NULL NULL 60.8 59 94% 30.16 0.0
22 01:15 Calm 0.00 NULL NULL 60.8 59 94% 30.16 0.0
22 00:55 Calm 0.00 Mostly Cloudy BKN060 62.6 60.8 94% 30.16 0.0
22 00:35 Calm 0.00 Overcast OVC060 62.6 60.8 94% 30.16 0.0
22 00:15 Calm 0.00 Overcast OVC060 62.6 60.8 94% 30.16 0.0
21 23:55 Calm 0.00 Mostly Cloudy BKN060 62.6 59 88% 30.16 0.0
21 23:35 Calm 0.00 Mostly Cloudy BKN060 62.6 60.8 94% 30.16 0.0
21 23:15 Calm 0.00 NULL NULL 62.6 59 88% 30.16 0.0
21 22:55 Calm 0.00 NULL NULL 62.6 59 88% 30.16 0.0
21 22:35 Calm 0.00 NULL NULL 62.6 59 88% 30.16 0.0
21 22:15 Calm 0.00 NULL NULL 62.6 59 88% 30.16 0.0
21 21:55 Calm 0.00 Fair CLR 64.4 59 83% 30.15 0.0
21 21:35 Calm 0.00 Fair CLR 64.4 59 83% 30.15 0.0
21 21:15 Calm 0.00 Fair CLR 68 59 73% 30.14 0.0
21 20:55 Calm 0.00 Fair CLR 71.6 59 65% 30.13 0.0
21 20:35 Calm 0.00 Fair CLR 68 59 73% 30.13 0.0
21 20:15 Calm 0.00 Fair CLR 69.8 60.8 73% 30.13 0.0
21 19:55 Calm 0.00 Fair CLR 75.2 60.8 61% 77 30.12 0.0
21 19:35 Calm 0.00 Fair CLR 77 59 54% 79 30.12 0.0
21 19:15 Calm 0.00 Fair CLR 78.8 59 51% 80 30.12 0.0
21 18:55 Calm 0.00 Fair CLR 78.8 59 51% 80 30.12 0.0
21 18:35 N 3 0.00 Fair CLR 78.8 59 51% 80 30.11 0.0
21 18:15 N 3 0.00 Fair CLR 78.8 53.6 42% 79 30.11 0.0
21 17:55 Calm 0.00 Fair CLR 80.6 55.4 42% 81 30.11 0.0
21 17:35 NW 7 0.00 Fair CLR 80.6 57.2 45% 81 30.11 0.0
21 17:15 NW 6 0.00 Fair CLR 80.6 57.2 45% 81 30.12 0.0
21 16:55 Calm 0.00 Fair CLR 80.6 57.2 45% 81 30.12 0.0
21 16:35 N 6 0.00 Fair CLR 80.6 57.2 45% 81 30.12 0.0
21 16:15 Calm 0.00 Fair CLR 80.6 55.4 42% 81 30.13 0.0
21 15:55 Calm 0.00 Fair CLR 80.6 57.2 45% 81 30.12 0.0
21 15:35 Calm 0.00 Fair CLR 80.6 57.2 45% 81 30.12 0.0
21 15:15 Calm 0.00 Fair CLR 78.8 55.4 45% 79 30.13 0.0
21 14:55 NW 5 0.00 Fair CLR 80.6 59 48% 81 30.13 0.0
21 14:35 N 6 0.00 Partly Cloudy SCT046 78.8 59 51% 80 30.13 0.0
21 14:15 Calm 0.00 Fair CLR 78.8 59 51% 80 30.13 0.0
21 13:55 N 6 0.00 Fair CLR 78.8 59 51% 80 30.13 0.0
21 13:35 Calm 0.00 Fair CLR 78.8 59 51% 80 30.13 0.0
21 13:15 NW 3 0.00 Fair CLR 78.8 59 51% 80 30.13 0.0
21 12:55 Calm 0.00 Fair CLR 78.8 59 51% 80 30.14 0.0
21 12:35 NW 5 0.00 Fair CLR 77 59 54% 79 30.14 0.0
21 12:15 N 6 0.00 Fair CLR 78.8 60.8 54% 80 30.13 0.0
21 11:55 NW 5 0.00 Fair CLR 77 60.8 57% 79 30.13 0.0
21 11:35 Calm 0.00 Partly Cloudy SCT030 78.8 62.6 58% 80 30.13 0.0
21 11:15 NW 5 0.00 Partly Cloudy SCT030 77 62.6 61% 79 30.13 0.0
21 10:55 NW 3 0.00 Fair CLR 77 62.6 61% 79 30.13 0.0
21 10:35 N 3 0.00 Fair CLR 77 60.8 57% 79 30.13 0.0
21 10:15 NW 3 0.00 Fair CLR 77 60.8 57% 79 30.13 0.0
21 09:55 NW 6 0.00 Fair CLR 77 62.6 61% 79 30.13 0.0
21 09:35 Calm 0.00 Fair CLR 73.4 60.8 65% 30.13 0.0
21 09:15 Calm 0.00 Fair CLR 73.4 64.4 74% 30.13 0.0
21 08:55 Calm 0.00 Partly Cloudy SCT012 71.6 64.4 78% 30.13 0.0
21 08:35 Calm 0.00 Fair CLR 71.6 64.4 78% 30.13 0.0
21 08:15 Calm 0.00 Fair CLR 71.6 64.4 78% 30.13 0.0
21 07:55 Calm 0.00 Fair CLR 71.6 64.4 78% 30.13 0.0
21 07:35 Calm 0.00 NULL NULL 69.8 64.4 83% 30.13 0.0
21 07:15 Calm 0.00 NULL NULL 66.2 64.4 94% 30.12 0.0
21 06:55 Calm 0.00 NULL NULL 64.4 62.6 94% 30.12 0.0
21 06:35 Calm 0.00 NULL NULL 64.4 62.6 94% 30.11 0.0
21 06:15 Calm 0.00 NULL NULL 64.4 62.6 94% 30.11 0.0
21 05:55 Calm 0.00 NULL NULL 64.4 62.6 94% 30.11 0.0
21 05:35 Calm 0.00 Overcast OVC015 64.4 64.4 100% 30.11 0.0
21 05:15 Calm 0.00 Overcast OVC015 64.4 64.4 100% 30.11 0.0
21 04:55 Calm 0.00 Overcast OVC015 64.4 64.4 100% 30.1 0.0
21 04:35 Calm 0.00 Overcast OVC015 64.4 62.6 94% 30.1 0.0
21 04:15 Calm 0.00 Overcast OVC017 64.4 62.6 94% 30.09 0.0
21 03:55 Calm 0.00 Mostly Cloudy BKN019 62.6 62.6 100% 30.1 0.0
21 03:35 Calm 0.00 NULL NULL 62.6 62.6 100% 30.11 0.0
21 03:15 Calm 0.00 NULL NULL 62.6 62.6 100% 30.11 0.0
21 02:55 Calm 0.00 NULL NULL 64.4 62.6 94% 30.11 0.0
21 02:35 Calm 0.00 NULL NULL 64.4 62.6 94% 30.11 0.0
21 02:15 Calm 0.00 Mostly Cloudy BKN090 64.4 62.6 94% 30.11 0.0
21 01:55 Calm 0.00 NULL NULL 64.4 62.6 94% 30.11 0.0
21 01:35 Calm 0.00 Mostly Cloudy BKN095 64.4 62.6 94% 30.11 0.0
21 01:15 Calm 0.00 NULL NULL 66.2 62.6 88% 30.11 0.0
21 00:55 Calm 0.00 Overcast SCT075 OVC100 68 62.6 83% 30.11 0.0
21 00:35 Calm 0.00 Overcast OVC110 68 62.6 83% 30.12 0.0
20 23:55 Calm 0.00 Overcast OVC100 69.8 60.8 73% 30.12 0.0
20 23:35 Calm 0.00 Mostly Cloudy SCT037 BKN110 69.8 62.6 78% 30.13 0.0
20 23:15 Calm 0.00 Partly Cloudy SCT041 SCT120 69.8 62.6 78% 30.13 0.0
20 22:55 Calm 0.00 Mostly Cloudy BKN041 69.8 62.6 78% 30.13 0.0
20 22:35 Calm 0.00 Mostly Cloudy BKN041 69.8 64.4 83% 30.14 0.0
20 22:15 Calm 0.00 Fair CLR 69.8 64.4 83% 30.14 0.0
20 21:55 Calm 0.00 Partly Cloudy SCT043 SCT065 SCT080 69.8 64.4 83% 30.14 0.0
20 21:35 Calm 0.00 Partly Cloudy SCT065 SCT080 69.8 64.4 83% 30.14 0.0
20 21:15 Calm 0.00 Fair CLR 69.8 64.4 83% 30.13 0.0
20 20:55 Calm 0.00 Partly Cloudy SCT065 71.6 64.4 78% 30.13 0.0
20 20:35 Calm 0.00 Partly Cloudy SCT065 71.6 64.4 78% 30.13 0.0
20 20:15 Calm 0.00 Mostly Cloudy SCT055 BKN065 71.6 64.4 78% 30.12 0.0
20 19:55 Calm 0.00 Mostly Cloudy BKN055 71.6 64.4 78% 30.12 0.0
20 19:35 Calm 0.00 Partly Cloudy SCT055 SCT065 73.4 64.4 74% 30.12 0.0
20 19:15 Calm 0.00 Overcast BKN055 OVC065 73.4 66.2 78% 30.11 0.0
20 18:55 Calm 0.00 Overcast BKN050 BKN065 OVC100 73.4 66.2 78% 30.12 0.0
20 18:35 Calm 0.00 Overcast SCT050 OVC100 73.4 64.4 74% 30.12 0.0
20 18:15 Calm 0.00 Overcast OVC050 71.6 64.4 78% 30.12 0.0
20 17:55 Calm 0.00 Overcast SCT021 BKN055 OVC110 73.4 66.2 78% 30.13 0.0
20 17:35 Calm 0.00 Mostly Cloudy SCT049 SCT090 BKN120 73.4 68 83% 30.13 0.0
20 17:15 Calm 0.00 Partly Cloudy SCT039 SCT055 SCT090 73.4 68 83% 30.13 0.0
20 16:55 Calm 0.00 Mostly Cloudy SCT030 SCT040 BKN055 73.4 68 83% 30.13 0.0
20 16:35 Calm 0.00 Overcast SCT031 BKN048 OVC065 71.6 66.2 83% 30.14 0.0
20 16:15 S 5 0.00 Overcast SCT031 BKN036 OVC050 75.2 64.4 69% 77 30.14 0.0
20 15:55 S 3 0.00 Overcast BKN038 OVC060 77 64.4 65% 79 30.14 0.0
20 15:35 S 3 0.00 Overcast SCT040 OVC055 77 64.4 65% 79 30.14 0.0
20 15:15 S 3 0.00 Mostly Cloudy BKN060 BKN070 77 64.4 65% 79 30.14 0.0
20 14:55 Calm 0.00 Mostly Cloudy SCT032 BKN050 BKN070 77 64.4 65% 79 30.15 0.0
20 14:35 Calm 0.00 Overcast SCT032 OVC050 77 64.4 65% 79 30.16 0.0
20 14:15 Calm 0.00 Overcast OVC050 77 62.6 61% 79 30.16 0.0
20 13:55 S 3 0.00 Mostly Cloudy BKN050 BKN070 77 60.8 57% 79 30.17 0.0
20 13:35 SW 3 0.00 Mostly Cloudy BKN050 BKN070 BKN080 77 60.8 57% 79 30.16 0.0
20 13:15 S 5 0.00 Overcast SCT049 OVC065 75.2 60.8 61% 77 30.16 0.0
20 12:55 SW 3 0.00 Mostly Cloudy BKN049 BKN080 77 60.8 57% 79 30.16 0.0
20 12:35 S 5 0.00 Mostly Cloudy BKN045 BKN050 BKN080 77 60.8 57% 79 30.17 0.0
20 12:15 S 5 0.00 Overcast OVC043 75.2 59 57% 78 30.17 0.0
20 11:55 SW 3 0.00 Overcast OVC043 75.2 60.8 61% 77 30.17 0.0
20 11:35 S 6 0.00 Overcast SCT039 BKN045 OVC050 77 60.8 57% 79 30.17 0.0
20 11:15 S 3 0.00 Mostly Cloudy BKN039 BKN050 77 60.8 57% 79 30.17 0.0
20 10:55 S 5 0.00 Mostly Cloudy BKN039 BKN044 BKN050 75.2 60.8 61% 77 30.17 0.0
20 10:35 SW 3 0.00 Overcast BKN037 OVC055 75.2 60.8 61% 77 30.18 0.0
20 10:15 Calm 0.00 Mostly Cloudy BKN037 BKN060 BKN070 75.2 60.8 61% 77 30.18 0.0
20 09:55 Calm 0.00 Mostly Cloudy SCT060 BKN070 BKN080 75.2 62.6 65% 77 30.18 0.0
20 09:35 S 3 0.00 Mostly Cloudy BKN070 BKN080 73.4 62.6 69% 30.18 0.0
20 09:15 Calm 0.00 Mostly Cloudy BKN070 BKN080 73.4 62.6 69% 30.18 0.0
20 08:55 SW 3 0.00 Mostly Cloudy BKN070 73.4 62.6 69% 30.18 0.0
20 08:35 SW 3 0.00 Fair CLR 71.6 64.4 78% 30.19 0.0
20 08:15 Calm 0.00 Fair CLR 69.8 62.6 78% 30.19 0.0
20 07:55 Calm 0.00 Fair CLR 68 62.6 83% 30.19 0.0
20 07:35 Calm 0.00 Fair CLR 68 62.6 83% 30.18 0.0
20 07:15 Calm 0.00 NULL NULL 64.4 60.8 88% 30.19 0.0
20 06:55 Calm 0.00 Overcast BKN025 OVC031 62.6 60.8 94% 30.19 0.0
20 06:35 Calm 0.00 Mostly Cloudy BKN027 60.8 59 94% 30.19 0.0
20 06:15 Calm 0.00 NULL NULL 59 57.2 94% 30.19 0.0
20 05:55 Calm 0.00 NULL NULL 59 55.4 88% 30.18 0.0
20 05:35 Calm 0.00 NULL NULL 59 55.4 88% 30.18 0.0
20 05:15 Calm 0.00 NULL NULL 57.2 55.4 94% 30.18 0.0
20 04:55 Calm 0.00 NULL NULL 57.2 55.4 94% 30.17 0.0
20 04:35 Calm 0.00 NULL NULL 57.2 55.4 94% 30.18 0.0
20 04:15 Calm 0.00 NULL NULL 57.2 55.4 94% 30.18 0.0
20 03:55 Calm 0.00 NULL NULL 57.2 55.4 94% 30.18 0.0
20 03:35 Calm 0.00 NULL NULL 57.2 55.4 94% 30.18 0.0
20 03:15 Calm 0.00 Mostly Cloudy BKN045 BKN050 57.2 55.4 94% 30.19 0.0
20 02:55 Calm 0.00 NULL NULL 55.4 55.4 100% 30.19 0.0
20 02:35 Calm 0.00 NULL NULL 55.4 53.6 94% 30.19 0.0
20 02:15 Calm 0.00 NULL NULL 55.4 53.6 94% 30.19 0.0
20 01:55 Calm 0.00 NULL NULL 55.4 55.4 100% 30.21 0.0
20 01:35 Calm 0.00 NULL NULL 55.4 53.6 94% 30.21 0.0
20 01:15 Calm 0.00 NULL NULL 55.4 55.4 100% 30.21 0.0
20 00:55 Calm 0.00 NULL NULL 55.4 55.4 100% 30.21 0.0
20 00:35 Calm 0.00 NULL NULL 55.4 55.4 100% 30.21 0.0
20 00:15 Calm 0.00 NULL NULL 55.4 55.4 100% 30.21 0.0
19 23:55 Calm 0.00 NULL NULL 55.4 55.4 100% 30.22 0.0
19 23:35 Calm 0.00 NULL NULL 57.2 55.4 94% 30.21 0.0
19 23:15 Calm 0.00 NULL NULL 57.2 55.4 94% 30.21 0.0
19 22:55 Calm 0.00 NULL NULL 57.2 55.4 94% 30.21 0.0
19 22:35 Calm 0.00 NULL NULL 59 55.4 88% 30.21 0.0
19 22:15 Calm 0.00 NULL NULL 59 55.4 88% 30.21 0.0
19 21:55 Calm 0.00 NULL NULL 59 55.4 88% 30.21 0.0
19 21:35 Calm 0.00 Fair CLR 60.8 53.6 77% 30.21 0.0
19 21:15 Calm 0.00 Fair CLR 60.8 53.6 77% 30.2 0.0
19 20:55 Calm 0.00 Fair CLR 60.8 55.4 83% 30.19 0.0
19 20:35 Calm 0.00 Fair CLR 62.6 55.4 77% 30.19 0.0
19 20:15 Calm 0.00 Fair CLR 64.4 55.4 73% 30.19 0.0
19 19:55 Calm 0.00 Fair CLR 68 55.4 64% 30.19 0.0
19 19:35 Calm 0.00 Fair CLR 69.8 53.6 57% 30.18 0.0
19 19:15 Calm 0.00 Fair CLR 73.4 53.6 50% 30.18 0.0
19 18:55 Calm 0.00 Fair CLR 75.2 51.8 44% 78 30.17 0.0
19 18:35 Calm 0.00 Fair CLR 75.2 51.8 44% 78 30.18 0.0
19 18:15 Calm 0.00 Fair CLR 75.2 53.6 47% 78 30.17 0.0
19 17:55 Calm 0.00 Partly Cloudy SCT055 73.4 53.6 50% 30.18 0.0
19 17:35 Calm 0.00 Partly Cloudy SCT055 77 53.6 44% 78 30.18 0.0
19 17:15 Calm 0.00 Partly Cloudy SCT055 75.2 53.6 47% 78 30.18 0.0
19 16:55 Calm 0.00 Partly Cloudy SCT055 77 53.6 44% 78 30.18 0.0
19 16:35 SW 3 0.00 Partly Cloudy SCT055 77 53.6 44% 78 30.19 0.0
19 16:15 Calm 0.00 Partly Cloudy SCT055 75.2 53.6 47% 78 30.19 0.0
19 15:55 Calm 0.00 Fair CLR 77 53.6 44% 78 30.19 0.0
19 15:35 NW 5 0.00 Fair CLR 73.4 53.6 50% 30.19 0.0
19 15:15 W 3 0.00 Partly Cloudy SCT047 73.4 53.6 50% 30.21 0.0
19 14:55 Calm 0.00 Mostly Cloudy BKN045 73.4 53.6 50% 30.21 0.0
19 14:35 NW 5 0.00 Fair CLR 73.4 53.6 50% 30.21 0.0
19 14:15 Calm 0.00 Fair CLR 73.4 53.6 50% 30.21 0.0
19 13:55 NW 5 0.00 Partly Cloudy SCT043 73.4 53.6 50% 30.21 0.0
19 13:35 NW 6 0.00 Partly Cloudy SCT043 73.4 55.4 53% 30.22 0.0
19 13:15 NW 3 0.00 Mostly Cloudy BKN043 71.6 51.8 50% 30.22 0.0
19 12:55 NW 3 0.00 Partly Cloudy SCT041 71.6 53.6 53% 30.22 0.0
19 12:35 Calm 0.00 Partly Cloudy SCT041 69.8 53.6 57% 30.23 0.0
19 12:15 NW 3 0.00 Partly Cloudy SCT037 SCT042 71.6 53.6 53% 30.23 0.0
19 11:55 W 3 0.00 Partly Cloudy SCT035 69.8 53.6 57% 30.23 0.0
19 11:35 Calm 0.00 Partly Cloudy SCT035 69.8 53.6 57% 30.23 0.0
19 11:15 N 3 0.00 Fair CLR 69.8 53.6 57% 30.23 0.0
19 10:55 Calm 0.00 Fair CLR 69.8 55.4 60% 30.23 0.0
19 10:35 Calm 0.00 Fair CLR 68 55.4 64% 30.23 0.0
19 10:15 NW 5 0.00 Fair CLR 68 55.4 64% 30.23 0.0
19 09:55 N 3 0.00 Fair CLR 66.2 55.4 68% 30.24 0.0
19 09:35 N 3 0.00 Fair CLR 66.2 55.4 68% 30.23 0.0
19 09:15 NW 5 0.00 Fair CLR 64.4 55.4 73% 30.23 0.0
19 08:55 Calm 0.00 Fair CLR 64.4 55.4 73% 30.23 0.0
19 08:35 N 3 0.00 Fair CLR 62.6 55.4 77% 30.23 0.0
19 08:15 N 5 0.00 Fair CLR 62.6 53.6 73% 30.22 0.0
Date Time (edt) Wind (mph) Vis. (mi.) Weather Sky Cond. Air Dwpt Max. Min. Relative Humidity Wind Chill (°F) Heat Index (°F) altimeter (in) sea level (mb) 1 hr 3 hr 6 hr
6 hour
Temperature (ºF) Pressure Precipitation (in)